Location: Dal�� Lhota
(48.7500°N, 14.0167°E)
Time: 09:24:40
(UTC+00:00)

Explorer 7 - Pass Details

Date: 09 August 2021
Orbit: 484 x 676 km, 50.3° (Epoch: 21 September)

Event Time Altitude Azimuth Distance (km) Brightness Sun altitude
Rises 07:30:58 0° 283° (WNW) 2,628 9.8 34.9°
Reaches altitude 10° 07:33:40 10° 264° (W) 1,770 9.0 35.3°
Maximum altitude 07:36:24 18° 221° (SW) 1,379 8.8 35.7°
Drops below altitude 10° 07:39:13 10° 178° (S) 1,838 9.8 36.1°
Sets 07:42:06 0° 159° (SSE) 2,774 10.9 36.6°
